[[{"header":{"parameterUnit":"m.s-1","parameterCategory":1,"la1":30.2991,"la2":30.254,"lo1":-89.0895,"lo2":-89.0444,"dy":0.0017,"dx":0.0017,"nx":28,"ny":28,"refTime":"2023-09-16T09:00:00:Z","depth":0,"parameterNumber":2,"parameterNumberName":"U-component_of_WINDS"},"data":[0,0,0,0,0,0,0,0,0,0,0,0,0,0,0,0,0,0,0,0,0,0,0,0,0,0,0,0,0,0,0,0,0,0,0,0,0,0,0,0,0,0,0,0,0,0,0,0,0,0,0,0,0,0,0,0,0,0,-1.4899,-1.49,0,-1.4998,-1.4999,-1.5,-1.498,-1.4978,-1.4976,-1.4974,-1.5076,-1.508,-1.5085,0,0,0,0,0,0,0,0,0,0,0,0,0,-1.4691,-1.4695,-1.4899,-1.49,-1.4901,-1.4998,-1.4999,-1.5,-1.498,-1.4978,-1.4976,-1.4974,-1.5074,-1.508,-1.5085,0,0,0,0,0,0,0,0,0,0,0,0,0,-1.4785,-1.4696,-1.4898,-1.4903,-1.4904,-1.4997,-1.4999,-1.5001,-1.4981,-1.4978,-1.4975,-1.4973,-1.5073,-1.5079,-1.5086,-1.5181,0,0,-1.5106,-1.5109,0,0,0,0,0,0,0,0,-1.478,-1.4792,-1.4901,-1.4903,-1.4904,-1.4974,-1.4963,-1.5061,-1.4981,-1.4952,-1.4974,-1.4971,-1.5044,-1.5053,-1.5077,-1.5186,-1.519,-1.5106,-1.511,-1.5113,-1.5115,0,0,0,0,0,0,0,-1.4773,-1.4788,-1.4938,-1.4902,-1.4905,-1.4899,-1.491,-1.4982,-1.5012,-1.4954,-1.4953,-1.4965,-1.5044,-1.5071,-1.508,-1.5192,-1.5106,-1.5112,-1.5116,-1.5119,-1.5384,-1.5386,0,0,0,0,0,0,-1.4765,-1.4783,-1.4935,-1.4941,-1.4834,-1.4905,-1.4917,-1.4954,-1.5011,-1.5017,-1.4967,-1.4963,-1.5061,-1.5072,-1.5083,-1.52,-1.5113,-1.5119,-1.5123,-1.538,-1.5384,-1.5388,0,0,0,0,0,0,-1.4761,-1.4779,-1.4931,-1.4862,-1.4881,-1.4912,-1.4954,-1.4958,-1.4984,-1.5021,-1.5026,-1.4989,-1.5059,-1.5074,-1.5157,-1.5203,-1.5122,-1.5128,-1.5377,-1.5382,-1.5386,-1.5433,0,0,0,0,0,0,-1.4755,-1.4777,-1.4814,-1.4863,-1.4884,-1.5004,-1.4957,-1.4961,-1.4996,-1.4992,-1.5043,-1.5049,-1.5058,-1.5147,-1.5164,-1.5211,-1.5134,-1.5373,-1.5379,-1.5384,-1.5427,-1.5439,-1.5448,0,0,0,0,0,-1.4747,-1.4823,-1.4816,-1.4835,-1.4931,-1.5006,-1.5019,-1.5029,-1.4999,-1.5037,-1.506,-1.5047,-1.5194,-1.5156,-1.5174,-1.5224,-1.537,-1.5377,-1.5384,-1.5423,-1.5436,-1.5448,0,0,0,0,0,0,-1.478,-1.483,-1.4823,-1.4916,-1.4957,-1.5003,-1.505,-1.5042,-1.5092,-1.5087,-1.5097,-1.5108,-1.5193,-1.5216,-1.5172,-1.5319,-1.5278,-1.5289,-1.5302,-1.5315,-1.5325,-1.5319,-1.5139,0,0,0,0,0,-1.4798,-1.4855,-1.4895,-1.4974,-1.4995,-1.5019,-1.5052,-1.5056,-1.5099,-1.5116,-1.5145,-1.5187,-1.5243,-1.528,-1.5333,-1.543,-1.5441,-1.5473,-1.5483,-1.5491,-1.5501,-1.5555,-1.557,-1.541,-1.541,-1.541,0,0,-1.4836,-1.487,-1.4906,-1.4982,-1.5014,-1.5073,-1.5034,-1.5097,-1.5141,-1.5125,-1.5206,-1.5229,-1.5276,-1.5367,-1.5408,-1.5389,-1.5547,-1.55,-1.5506,-1.5512,-1.5563,-1.5579,-1.5592,-1.5415,-1.5414,-1.5413,0,0,-1.4936,-1.4967,-1.5037,-1.507,-1.5119,-1.5134,-1.515,-1.5197,-1.5212,-1.5293,-1.5282,-1.5333,-1.5429,-1.5464,-1.5494,-1.5605,-1.5595,-1.5622,-1.5677,-1.5729,-1.5742,-1.5753,-1.5794,-1.5809,-1.5631,-1.5631,-1.5631,0,-1.4978,-1.5066,-1.5074,-1.5139,-1.5173,-1.516,-1.5231,-1.5262,-1.5326,-1.535,-1.5326,-1.5447,-1.5477,-1.5576,-1.5603,-1.5627,-1.5647,-1.5618,-1.5739,-1.575,-1.5761,-1.58,-1.5816,-1.5634,-1.5634,-1.5634,-1.5633,0,-1.5116,-1.5177,-1.5227,-1.5289,-1.5328,-1.5396,-1.5414,-1.5452,-1.5452,-1.5469,-1.5552,-1.5588,-1.5649,-1.5672,-1.5672,-1.5771,-1.5757,-1.5736,-1.5696,-1.5779,-1.5817,-1.5832,-1.5639,-1.5638,-1.5637,-1.5636,0,0,-1.5242,-1.5306,-1.5325,-1.5353,-1.5405,-1.5453,-1.5519,-1.5578,-1.5612,-1.5655,-1.5712,-1.5792,-1.5773,-1.5807,-1.5811,-1.5857,-1.5944,-1.583,-1.5831,-1.5852,-1.6056,-1.6073,-1.6091,-1.5936,-1.5939,-1.5942,-1.6053,0,-1.5348,-1.5466,-1.5474,-1.5581,-1.5638,-1.5626,-1.5684,-1.5722,-1.574,-1.5791,-1.5809,-1.5867,-1.5837,-1.5857,-1.5902,-1.5924,-1.5986,-1.5916,-1.599,-1.5993,-1.5982,-1.611,-1.6129,-1.6232,-1.6067,-1.607,-1.6071,0,-1.5489,-1.5537,-1.565,-1.5694,-1.5718,-1.577,-1.5825,-1.5874,-1.5916,-1.5926,-1.5963,-1.596,-1.6028,-1.5983,-1.6077,-1.603,-1.606,-1.6076,-1.608,-1.6089,-1.6039,-1.6125,-1.6265,-1.6281,-1.6094,-1.6092,-1.6091,0,-1.5572,-1.5665,-1.5744,-1.5768,-1.5821,-1.5859,-1.5882,-1.5922,-1.5957,-1.6005,-1.6028,-1.6082,-1.6112,-1.6154,-1.6166,-1.6132,-1.6261,-1.6216,-1.6271,-1.6271,-1.6301,-1.63,-1.6451,-1.6317,-1.6317,-1.6316,-1.6316,0,-1.5692,-1.5761,-1.5782,-1.5832,-1.5909,-1.5917,-1.5994,-1.6015,-1.605,-1.6104,-1.6095,-1.6145,-1.6156,-1.6208,-1.6218,-1.6295,-1.6308,-1.6318,-1.632,-1.6321,-1.632,-1.6343,-1.6337,-1.632,-1.632,-1.6319,-1.6318,0,-1.5799,-1.5815,-1.5902,-1.5945,-1.5957,-1.6012,-1.6049,-1.6096,-1.6111,-1.6179,-1.6195,-1.622,-1.628,-1.6295,-1.6368,-1.6374,-1.6466,-1.646,-1.6452,-1.6452,-1.6507,-1.6503,-1.668,-1.6705,-1.6553,-1.6554,-1.6555,0,-1.5875,-1.5929,-1.5977,-1.6012,-1.6038,-1.6094,-1.613,-1.6139,-1.6176,-1.6228,-1.6269,-1.6329,-1.6377,-1.6475,-1.6499,-1.6554,-1.6551,-1.6609,-1.6559,-1.6558,-1.6554,-1.6552,-1.6558,-1.6619,-1.6621,-1.6622,-1.6623,0,-1.601,-1.6016,-1.6068,-1.6123,-1.6165,-1.6209,-1.625,-1.6279,-1.6294,-1.6336,-1.6398,-1.6436,-1.6509,-1.6569,-1.6624,-1.6648,-1.6639,-1.6638,-1.6654,-1.6657,-1.6651,-1.6657,-1.648,-1.6635,-1.6634,-1.6633,-1.6632,-1.6632,-1.6106,-1.6153,-1.6195,-1.6253,-1.6285,-1.6324,-1.6371,-1.6392,-1.6444,-1.6505,-1.6506,-1.6574,-1.6614,-1.6688,-1.6714,-1.6767,-1.675,-1.6773,-1.6779,-1.6785,-1.6791,-1.664,-1.6777,-1.6777,-1.6776,-1.6776,-1.6776,0,-1.6242,-1.6268,-1.6321,-1.638,-1.6425,-1.6411,-1.6456,-1.6496,-1.6556,-1.6594,-1.6642,-1.6713,-1.677,-1.6798,-1.6855,-1.6892,-1.6889,-1.6907,-1.6905,-1.6911,-1.6802,-1.6784,-1.6908,-1.6908,-1.6908,-1.6908,-1.6908,-1.6908,-1.6319,-1.6399,-1.6409,-1.6504,-1.6529,-1.6596,-1.6623,-1.6658,-1.6689,-1.6769,-1.6817,-1.6835,-1.6869,-1.6928,-1.698,-1.6986,-1.7009,-1.7029,-1.7034,-1.6932,-1.6919,-1.6906,-1.6889,-1.7033,-1.7033,-1.7139,-1.7139,-1.714]},{"header":{"parameterUnit":"m.s-1","parameterCategory":1,"la1":30.2991,"la2":30.254,"lo1":-89.0895,"lo2":-89.0444,"dy":0.0017,"dx":0.0017,"nx":28,"ny":28,"refTime":"2023-09-16T09:00:00:Z","depth":0,"parameterNumber":3,"parameterNumberName":"V-component_of_WINDS"},"data":[0,0,0,0,0,0,0,0,0,0,0,0,0,0,0,0,0,0,0,0,0,0,0,0,0,0,0,0,0,0,0,0,0,0,0,0,0,0,0,0,0,0,0,0,0,0,0,0,0,0,0,0,0,0,0,0,0,0,-4.8726,-4.8727,0,-4.8873,-4.8874,-4.8876,-4.8821,-4.8817,-4.8814,-4.8811,-4.8958,-4.8965,-4.8972,0,0,0,0,0,0,0,0,0,0,0,0,0,-4.8393,-4.84,-4.8726,-4.8727,-4.8729,-4.8872,-4.8874,-4.8876,-4.8821,-4.8817,-4.8813,-4.8809,-4.8955,-4.8964,-4.8972,0,0,0,0,0,0,0,0,0,0,0,0,0,-4.8539,-4.8402,-4.8725,-4.8719,-4.872,-4.8872,-4.8875,-4.8877,-4.8822,-4.8817,-4.8812,-4.8807,-4.8953,-4.8963,-4.8973,-4.9139,0,0,-4.9006,-4.901,0,0,0,0,0,0,0,0,-4.853,-4.8551,-4.8718,-4.872,-4.8721,-4.8823,-4.8811,-4.8965,-4.8823,-4.8783,-4.8811,-4.8805,-4.8917,-4.893,-4.8969,-4.9146,-4.9152,-4.9007,-4.9013,-4.9018,-4.902,0,0,0,0,0,0,0,-4.852,-4.8544,-4.8784,-4.8721,-4.8722,-4.8708,-4.8723,-4.884,-4.8876,-4.8786,-4.8783,-4.8801,-4.8917,-4.8959,-4.8972,-4.9155,-4.9006,-4.9016,-4.9022,-4.9026,-4.9476,-4.9481,0,0,0,0,0,0,-4.851,-4.8536,-4.8779,-4.8788,-4.8612,-4.8718,-4.8735,-4.8795,-4.8875,-4.8882,-4.8805,-4.8798,-4.8943,-4.8959,-4.8977,-4.9177,-4.9017,-4.9027,-4.9033,-4.947,-4.9477,-4.9483,0,0,0,0,0,0,-4.8503,-4.8532,-4.8773,-4.8661,-4.8691,-4.8729,-4.8798,-4.8801,-4.8843,-4.8889,-4.8895,-4.8842,-4.894,-4.8962,-4.91,-4.9181,-4.9032,-4.9042,-4.9464,-4.9472,-4.948,-4.9578,0,0,0,0,0,0,-4.8494,-4.853,-4.8595,-4.8663,-4.8697,-4.8895,-4.8803,-4.8808,-4.8862,-4.8854,-4.8925,-4.8932,-4.8937,-4.9084,-4.911,-4.9193,-4.905,-4.9456,-4.9467,-4.9477,-4.9568,-4.9589,-4.9607,0,0,0,0,0,-4.8482,-4.8616,-4.8598,-4.8628,-4.8778,-4.89,-4.8919,-4.8924,-4.8868,-4.8933,-4.8963,-4.893,-4.9168,-4.9099,-4.9127,-4.9215,-4.9451,-4.9464,-4.9476,-4.9559,-4.9584,-4.9606,0,0,0,0,0,0,-4.8554,-4.8624,-4.8606,-4.8766,-4.8827,-4.889,-4.8972,-4.8951,-4.9029,-4.9018,-4.9019,-4.9035,-4.9178,-4.9209,-4.9131,-4.9379,-4.9301,-4.932,-4.9354,-4.9378,-4.9398,-4.9387,-4.9059,0,0,0,0,0,-4.8589,-4.8683,-4.8738,-4.8874,-4.8906,-4.8934,-4.8987,-4.8985,-4.9049,-4.9074,-4.9114,-4.9176,-4.9264,-4.9323,-4.9407,-4.9571,-4.9586,-4.9645,-4.9665,-4.9681,-4.9697,-4.9787,-4.9814,-4.9524,-4.9524,-4.9524,0,0,-4.8661,-4.8711,-4.877,-4.889,-4.8937,-4.9034,-4.8956,-4.9061,-4.9133,-4.909,-4.9223,-4.9254,-4.9323,-4.9475,-4.9544,-4.9506,-4.978,-4.9697,-4.9709,-4.9717,-4.9803,-4.983,-4.9854,-4.9533,-4.9531,-4.953,0,0,-4.8842,-4.8889,-4.9008,-4.9057,-4.9131,-4.9149,-4.9177,-4.9244,-4.9263,-4.9397,-4.9367,-4.9451,-4.9604,-4.9655,-4.97,-4.9901,-4.9873,-4.9928,-5.003,-5.0117,-5.014,-5.016,-5.0232,-5.0258,-4.9944,-4.9944,-4.9944,0,-4.8923,-4.9068,-4.9071,-4.9179,-4.9233,-4.9199,-4.9319,-4.9366,-4.9463,-4.95,-4.9456,-4.9648,-4.9692,-4.9855,-4.9904,-4.9942,-4.9974,-4.992,-5.0137,-5.0157,-5.0176,-5.0245,-5.0272,-4.995,-4.995,-4.9949,-4.9948,0,-4.9163,-4.9264,-4.9351,-4.9447,-4.951,-4.9623,-4.9642,-4.9705,-4.9698,-4.972,-4.9856,-4.9908,-5.0002,-5.004,-5.0034,-5.0203,-5.0178,-5.0136,-5.0057,-5.021,-5.0275,-5.0301,-4.9959,-4.9957,-4.9955,-4.9954,0,0,-4.9395,-4.9491,-4.9523,-4.9567,-4.9645,-4.9723,-4.9834,-4.9928,-4.9982,-5.0049,-5.0142,-5.0272,-5.0234,-5.0286,-5.0284,-5.0361,-5.0517,-5.0309,-5.0311,-5.0347,-5.0708,-5.074,-5.0771,-5.0499,-5.0504,-5.0508,-5.0702,0,-4.9583,-4.978,-4.9786,-4.9966,-5.0059,-5.0029,-5.0125,-5.0183,-5.0207,-5.0288,-5.0313,-5.0406,-5.0348,-5.0379,-5.0453,-5.0482,-5.059,-5.0468,-5.0585,-5.0589,-5.057,-5.0804,-5.0839,-5.102,-5.0727,-5.0732,-5.0735,0,-4.9829,-4.9907,-5.0096,-5.0162,-5.0201,-5.0289,-5.0375,-5.0453,-5.0518,-5.0529,-5.0588,-5.0575,-5.0687,-5.0605,-5.0759,-5.0677,-5.0724,-5.0746,-5.0753,-5.0765,-5.0672,-5.0823,-5.1078,-5.1105,-5.0774,-5.0771,-5.0768,0,-4.9981,-5.0131,-5.0265,-5.0302,-5.0382,-5.0444,-5.048,-5.054,-5.0596,-5.0671,-5.0707,-5.0793,-5.084,-5.0907,-5.0917,-5.0856,-5.1073,-5.0991,-5.1085,-5.1085,-5.1133,-5.113,-5.14,-5.1162,-5.1162,-5.1161,-5.1161,0,-5.0191,-5.0308,-5.0334,-5.0416,-5.0546,-5.0551,-5.068,-5.071,-5.0764,-5.0851,-5.0828,-5.091,-5.0918,-5.1001,-5.101,-5.1137,-5.1158,-5.117,-5.1171,-5.1173,-5.1172,-5.1205,-5.1194,-5.1169,-5.1167,-5.1166,-5.1164,0,-5.0382,-5.0404,-5.0548,-5.0612,-5.063,-5.0724,-5.0778,-5.0856,-5.0876,-5.0986,-5.1012,-5.1045,-5.1142,-5.1159,-5.1273,-5.1278,-5.1431,-5.1418,-5.141,-5.1408,-5.1503,-5.1494,-5.1804,-5.1845,-5.158,-5.1582,-5.1584,0,-5.0516,-5.0606,-5.068,-5.0737,-5.0777,-5.0869,-5.0926,-5.0933,-5.0994,-5.1074,-5.1143,-5.1238,-5.1315,-5.1472,-5.1504,-5.1591,-5.1581,-5.1684,-5.1594,-5.1594,-5.1584,-5.158,-5.1589,-5.1702,-5.1705,-5.1707,-5.1709,0,-5.0751,-5.0757,-5.0841,-5.093,-5.1,-5.1069,-5.1135,-5.1182,-5.1198,-5.1267,-5.1367,-5.1427,-5.1544,-5.1639,-5.1726,-5.1761,-5.1738,-5.1737,-5.1763,-5.1767,-5.1759,-5.1766,-5.1458,-5.173,-5.1728,-5.1726,-5.1725,-5.1724,-5.0918,-5.0997,-5.1062,-5.1156,-5.1207,-5.1269,-5.1346,-5.1376,-5.1461,-5.1558,-5.1556,-5.1666,-5.1728,-5.1842,-5.1883,-5.1968,-5.1935,-5.1974,-5.1984,-5.1993,-5.2003,-5.1744,-5.1984,-5.1983,-5.1983,-5.1982,-5.1982,0,-5.1153,-5.1193,-5.128,-5.1374,-5.1448,-5.1421,-5.1492,-5.1556,-5.1653,-5.1714,-5.179,-5.1905,-5.1997,-5.2037,-5.2127,-5.2188,-5.2179,-5.2211,-5.2207,-5.2216,-5.2027,-5.1996,-5.2216,-5.2216,-5.2216,-5.2216,-5.2216,-5.2216,-5.1284,-5.1416,-5.143,-5.1587,-5.1626,-5.1735,-5.1778,-5.1835,-5.1883,-5.2013,-5.209,-5.2116,-5.2168,-5.2261,-5.2344,-5.2353,-5.2388,-5.2425,-5.243,-5.2253,-5.2229,-5.2206,-5.2177,-5.2432,-5.2432,-5.2611,-5.2613,-5.2614]}]]